STARLINK-33765, 63473

Orbit data source: Space-Track

STARLINK-33765, 63473 is a payload satellite owned by SpaceX/Seattle (US) in LEO that was launched on Sun, 06 Apr 2025 UTC via an FALCON 9 launch vehicle from the Air Force Eastern Test Range (AFETR). Payload-class satellites include a variety of spacecraft equipped with specific instruments for various scientific and technological missions. These include communications satellites like Starlink; space stations such as the ISS; scientific satellites like the Hubble; Earth observation satellites from companies like Planet Labs, Umbra, and HawkEye 360; GPS; miniature CubeSats for education and research; and military/defense satellites.

Loading next visibility...
Identifier
63473, 2025-070P
Orbit
LEO
Country
Flag of USUS
Related business
Manufacturer
SpaceX/Seattle
Mission
Operational Commercial Communications
Bus & Motor
STARLINK V2MO, Unknown motor
Mass
575 kg wet, ~530 kg dry
Launch date (UTC)
2025-04-06 (1 year ago)
Launch vehicle
FALCON 9
Launch site
Air Force Eastern Test Range (AFETR)
Object type
Payload
Rocket body
Debris
Shape & HBR
Box + 2 Pan, 17.7 m
Radar Cross Section
36.964 m², Large (>1 m²)

Expand to show TLE details & history
Last TLE update: 17 hours ago

TLE from 17 hours ago
0 STARLINK-33765
1 63473U 25070P   26169.37490289  .00011285  00000-0  41886-3 0  9990
2 63473  43.0030  51.2948 0001192 279.8340  80.2377 15.27590910 68370
Epoch: 2026-06-18T08:59Z
TLE epoch observation values (Epoch: 2026-06-18T08:59:51.609Z)
Latitude
-0.00003°
Longitude
9.71059°
Altitude
482.654 km
Speed
7.626 km/s
True Right ascension
03h 25m 10s
True Declination
0° 00' 00"
Sunlit
Object was in daylight at epoch
Visualization orbit readout
Latitude
Unknown
Longitude
Unknown
Altitude
Unknown
Speed
Unknown
Apparent Right ascension
Unknown
Apparent Declination
Unknown
Sunlit
N/A
Visualization observer readout
Local Sidereal Time
12:31:19
Azimuth
Unknown
Elevation
Unknown
Doppler factor
Unknown
Orbital elements
Apogee altitude
485.779 km
Perigee altitude
484.143 km
Semi-major axis
6,863.098 km
Eccentricity
0.00012
Inclination
43.003°
RAAN
51.2948°
Arg. of periapsis
279.834°
True anomaly
80.25116°
Mean anomaly
80.2377°
Eccentric anomaly
80.24443°
Mean motion
3.81736 °/min
Orbital period
94.31 mins
BSTAR
0.00041886
Loading maneuver chart data...
Computing Atmospheric mass density...
Loading historical data...
Loading historical data...
Loading historical data...
Loading historical data...
Loading historical data...
Loading historical data...
Loading historical data...

Documentation

Showing up to 5 results
|